STARLINK-3668, 52002

Orbit data source: Space-Track

STARLINK-3668, 52002 is a payload satellite owned by SpaceX/Seattle (US) in LEO that was launched on Wed, 09 Mar 2022 UTC via an FALCON 9 launch vehicle from the Air Force Eastern Test Range (AFETR). Payload-class satellites include a variety of spacecraft equipped with specific instruments for various scientific and technological missions. These include communications satellites like Starlink; space stations such as the ISS; scientific satellites like the Hubble; Earth observation satellites from companies like Planet Labs, Umbra, and HawkEye 360; GPS; miniature CubeSats for education and research; and military/defense satellites.

Loading next visibility...
Identifier
52002, 2022-025AY
Orbit
LEO
Last TLE update
15 hours ago
Origin
Manufacturer
SpaceX/Seattle
Mission
Operational Commercial Communications
Bus & Motor
STARLINK, Unknown motor
Mass
297 kg wet, ~275 kg dry
Launch date (UTC)
2022-03-09 (3 years ago)
Launch vehicle
FALCON 9
Launch site
Air Force Eastern Test Range (AFETR)
Object type
Payload
Rocket body
Debris
Shape & HBR
Box + 1 Pan, 8.86 m
Radar Cross Section
13.562 m², Large (>1 m²)

Expand to show TLE details & history

TLE from 15 hours ago
0 STARLINK-3668
1 52002U 22025AY  25169.59530943  .00005225  00000-0  34625-3 0  9998
2 52002  53.2163 124.7231 0000890  72.9898 287.1191 15.08828514181057
Epoch: 2025-06-18T14:17Z
TLE epoch observation values (Epoch: 2025-06-18T14:17:14.734Z)
Latitude
-0.00008°
Longitude
3.33655°
Altitude
540.495 km
Speed
7.593 km/s
True Right ascension
08h 18m 53s
True Declination
0° 00' 00"
Sunlit
Object was in daylight at epoch
Visualization orbit readout
Latitude
-5.55865°
Longitude
-175.34482°
Altitude
541.774 km
Speed
7.592 km/s
Apparent Right ascension
23h 17m 16s
Apparent Declination
-36° 51' 25"
Sunlit
Object is in full shadow
Visualization observer readout
Local Sidereal Time
16:15:29
Azimuth
112.744° SE
Elevation
-33.252°
Doppler factor
1
Orbital elements
Apogee altitude
540.639 km
Perigee altitude
539.408 km
Semi-major axis
6,918.161 km
Eccentricity
0.00009
Inclination
53.2163°
RAAN
124.7231°
Arg. of periapsis
72.9898°
True anomaly
Unknown
Mean anomaly
287.1191°
Eccentric anomaly
Unknown
Mean motion
3.77187 °/min
Orbital period
95.44 mins
BSTAR
0.00034625
Loading maneuver chart data...
Loading SW <> Apogee altitude chart data...
Loading historical data...
Loading historical data...
Loading historical data...
Loading historical data...
Loading historical data...
Loading historical data...
Loading historical data...

STARLINK-3668 Visibility forecast

Observer location: undefined°, undefined°

Span
Click to sort rows by Start time (UTC) header in descending order
Start Az.
Max El. time (UTC)
Max El. Az.
Max El.
End time (UTC)
End Az.
7 mins2025-06-19 06:41:11.072Z308.912° NW2025-06-19 06:45:11.072Z146.671° SSE43.555°2025-06-19 06:48:11.072Z133.476° SE
6 mins2025-06-19 23:53:11.072Z250.189° W2025-06-19 23:55:11.072Z320.055° NNW41.392°2025-06-19 23:59:11.072Z44.388° NE
5 mins2025-06-20 04:54:11.072Z340.852° N2025-06-20 04:56:11.072Z18.972° NNE22.266°2025-06-20 04:59:11.072Z75.419° E
|